Es ist keine erhöhte Aufmerksamkeit aufgrund des Wetters notwendig.    Es gibt keine Warnungen.
Webcam Vorhersage DWD Regenradar Wetterlage NRW Blitze Wind GFS-Modell
webcam


Kleve - Düffelward SSO more information Kleve - Düffelward SSO


Goch more information Goch


Weitere Templates dieser Seite und andere Webseiten:

Meteotemplate

Awekas - Template

weather34 - Template

Wetter aus Willich

Hubert Reyers' Wetter


te
World Weather Websites
Bo-Rox Wetter Topsites List
Stat Counter
 

METAR-Meldungen aus der Umgebung

   
EHDL - Nijmegen
Aktualisierung: 13-07-2020 21:55
Bewölkt  
Bewölkt  
   Wind: SSW 3.7 km/h
Wind: SSW 3.7 km/h
Temperatur: 16°C
Taupunkt: 11°C
Luftfeuchte: 72%
Luftdruck: 1019 hPa
Bewölkt: Bewölkt
Sichtbarkeit: More than 10 km
Bewölkung: Bewölkt 7315.2 m
EHDL 131955Z AUTO 21002KT 9999 OVC240 16/11 Q1019 BLU
EHDL - Arnhem
Aktualisierung: 13-07-2020 21:55
Bewölkt  
Bewölkt  
   Wind: SSW 3.7 km/h
Wind: SSW 3.7 km/h
Temperatur: 16°C
Taupunkt: 11°C
Luftfeuchte: 72%
Luftdruck: 1019 hPa
Bewölkt: Bewölkt
Sichtbarkeit: More than 10 km
Bewölkung: Bewölkt 7315.2 m
EHDL 131955Z AUTO 21002KT 9999 OVC240 16/11 Q1019 BLU
EHAM - Amsterdam
Aktualisierung: 13-07-2020 21:55
Klar  
Klar  
   Wind: Westen 13 km/h
Wind: Westen 13 km/h
Temperatur: 19°C
Taupunkt: 7°C
Luftfeuchte: 46%
Luftdruck: 1019 hPa
Sichtbarkeit: More than 10 km
Bewölkung: Klar
EHAM 131955Z 26007KT 230V290 CAVOK 19/07 Q1019 NOSIG
EHDL - Ede
Aktualisierung: 13-07-2020 21:55
Bewölkt  
Bewölkt  
   Wind: SSW 3.7 km/h
Wind: SSW 3.7 km/h
Temperatur: 16°C
Taupunkt: 11°C
Luftfeuchte: 72%
Luftdruck: 1019 hPa
Bewölkt: Bewölkt
Sichtbarkeit: More than 10 km
Bewölkung: Bewölkt 7315.2 m
EHDL 131955Z AUTO 21002KT 9999 OVC240 16/11 Q1019 BLU
EHDL - Emmen
Aktualisierung: 13-07-2020 21:55
Bewölkt  
Bewölkt  
   Wind: SSW 3.7 km/h
Wind: SSW 3.7 km/h
Temperatur: 16°C
Taupunkt: 11°C
Luftfeuchte: 72%
Luftdruck: 1019 hPa
Bewölkt: Bewölkt
Sichtbarkeit: More than 10 km
Bewölkung: Bewölkt 7315.2 m
EHDL 131955Z AUTO 21002KT 9999 OVC240 16/11 Q1019 BLU
EHAM - Den Haag
Aktualisierung: 13-07-2020 21:55
Klar  
Klar  
   Wind: Westen 13 km/h
Wind: Westen 13 km/h
Temperatur: 19°C
Taupunkt: 7°C
Luftfeuchte: 46%
Luftdruck: 1019 hPa
Sichtbarkeit: More than 10 km
Bewölkung: Klar
EHAM 131955Z 26007KT 230V290 CAVOK 19/07 Q1019 NOSIG
EHAM - Apeldoorn
Aktualisierung: 13-07-2020 21:55
Klar  
Klar  
   Wind: Westen 13 km/h
Wind: Westen 13 km/h
Temperatur: 19°C
Taupunkt: 7°C
Luftfeuchte: 46%
Luftdruck: 1019 hPa
Sichtbarkeit: More than 10 km
Bewölkung: Klar
EHAM 131955Z 26007KT 230V290 CAVOK 19/07 Q1019 NOSIG
EHAM - Leeuwarden
Aktualisierung: 13-07-2020 21:55
Klar  
Klar  
   Wind: Westen 13 km/h
Wind: Westen 13 km/h
Temperatur: 19°C
Taupunkt: 7°C
Luftfeuchte: 46%
Luftdruck: 1019 hPa
Sichtbarkeit: More than 10 km
Bewölkung: Klar
EHAM 131955Z 26007KT 230V290 CAVOK 19/07 Q1019 NOSIG
TNCC - Willemstad
Aktualisierung: 13-07-2020 21:00
leicht bewölkt  
leicht bewölkt  
   Wind: Osten 20.4 km/h
Wind: Osten 20.4 km/h
Temperatur: 31°C
Hitzeindex: 37°C
Taupunkt: 24°C
Luftfeuchte: 66%
Luftdruck: 1013 hPa
Bewölkt: leicht bewölkt
Sichtbarkeit: More than 10 km
Bewölkung: leicht bewölkt 792.5 m
TNCC 131900Z 09011KT 9999 FEW026 31/24 Q1013 NOSIG
EHEH - Eindhoven
Aktualisierung: 13-07-2020 21:55
Klar  
Klar  
   Wind: NW 5.6 km/h
Wind: NW 5.6 km/h
Temperatur: 19°C
Taupunkt: 10°C
Luftfeuchte: 56%
Luftdruck: 1019 hPa
Bewölkt: Klar
Sichtbarkeit: More than 10 km
Bewölkung: Klar
EHEH 131955Z AUTO 31003KT 240V360 9999 NCD 19/10 Q1019 BLU 31003KT CAVOK
EHAM - Middelburg
Aktualisierung: 13-07-2020 21:55
Klar  
Klar  
   Wind: Westen 13 km/h
Wind: Westen 13 km/h
Temperatur: 19°C
Taupunkt: 7°C
Luftfeuchte: 46%
Luftdruck: 1019 hPa
Sichtbarkeit: More than 10 km
Bewölkung: Klar
EHAM 131955Z 26007KT 230V290 CAVOK 19/07 Q1019 NOSIG
EHAM - Delfzijl
Aktualisierung: 13-07-2020 21:55
Klar  
Klar  
   Wind: Westen 13 km/h
Wind: Westen 13 km/h
Temperatur: 19°C
Taupunkt: 7°C
Luftfeuchte: 46%
Luftdruck: 1019 hPa
Sichtbarkeit: More than 10 km
Bewölkung: Klar
EHAM 131955Z 26007KT 230V290 CAVOK 19/07 Q1019 NOSIG

Script entwickelt von  Saratoga-weather.org Angepasst für das Template von  Weerstation Leuven

Sie finden Wetter-Infos dieser Station auch auf:

UK Metoffice

European Weather Network

WeatherCloud

Weather Underground

AWEKAS

Neuwetter

Wettersektor

Von uns verwendete Ausrüstung:

Wetterstation
Davis Vantage Pro2

Wetterprogramm
Meteobridge

WetterComputer
Computer

Davis Vantage Pro2

Meteobridge

Computer